| time (UTC) | temp C | wind direction | speed KPH | gust KPH | rain 1hr cm | rain 24hr cm | rain mn cm | humidity % | barometer mb |
| 20260510093501 | 5 | 256 | 0.0 | 1.6 | 0.00 | 0.00 | 0.00 | 66 | 1019.4 |
| 20260510092958 | 5 | 230 | 0.0 | 1.6 | 0.00 | 0.00 | 0.00 | 66 | 1019.5 |
| 20260510092455 | 5 | 247 | 0.0 | 0.0 | 0.00 | 0.00 | 0.00 | 66 | 1019.2 |
| 20260510091954 | 6 | 248 | 0.0 | 0.0 | 0.00 | 0.00 | 0.00 | 66 | 1019.2 |
| 20260510091451 | 6 | 231 | 1.6 | 1.6 | 0.00 | 0.00 | 0.00 | 63 | 1019.3 |
| 20260510090947 | 6 | 219 | 1.6 | 1.6 | 0.00 | 0.00 | 0.00 | 63 | 1019.2 |
| 20260510090445 | 5 | 225 | 0.0 | 1.6 | 0.00 | 0.00 | 0.00 | 64 | 1019.3 |
| 20260510085940 | 5 | 221 | 0.0 | 1.6 | 0.00 | 0.00 | 0.00 | 64 | 1019.1 |
| 20260510085435 | 4 | 226 | 0.0 | 1.6 | 0.00 | 0.00 | 0.00 | 67 | 1019.1 |
| 20260510084931 | 4 | 278 | 0.0 | 0.0 | 0.00 | 0.00 | 0.00 | 70 | 1018.8 |
| 20260510084428 | 4 | 278 | 0.0 | 0.0 | 0.00 | 0.00 | 0.00 | 69 | 1019.0 |
| 20260510083925 | 4 | 304 | 0.0 | 0.0 | 0.00 | 0.00 | 0.00 | 72 | 1018.8 |
| 20260510083421 | 5 | 305 | 0.0 | 0.0 | 0.00 | 0.00 | 0.00 | 72 | 1018.6 |
| 20260510082916 | 5 | 306 | 0.0 | 0.0 | 0.00 | 0.00 | 0.00 | 71 | 1018.4 |
| 20260510082415 | 5 | 287 | 0.0 | 0.0 | 0.00 | 0.00 | 0.00 | 69 | 1018.8 |
| 20260510081913 | 5 | 285 | 0.0 | 0.0 | 0.00 | 0.00 | 0.00 | 70 | 1018.5 |
| 20260510081409 | 4 | 248 | 0.0 | 0.0 | 0.00 | 0.00 | 0.00 | 69 | 1018.5 |
| 20260510080906 | 4 | 247 | 0.0 | 0.0 | 0.00 | 0.00 | 0.00 | 68 | 1018.3 |
| 20260510080400 | 4 | 248 | 0.0 | 0.0 | 0.00 | 0.00 | 0.00 | 67 | 1018.3 |
| 20260510075858 | 5 | 247 | 0.0 | 0.0 | 0.00 | 0.00 | 0.00 | 66 | 1018.4 |
| 20260510075356 | 5 | 247 | 0.0 | 0.0 | 0.00 | 0.00 | 0.00 | 65 | 1018.4 |
| 20260510074851 | 5 | 247 | 0.0 | 0.0 | 0.00 | 0.00 | 0.00 | 64 | 1018.4 |
| 20260510074349 | 5 | 247 | 0.0 | 0.0 | 0.00 | 0.00 | 0.00 | 64 | 1018.3 |
| 20260510073845 | 5 | 247 | 0.0 | 0.0 | 0.00 | 0.00 | 0.00 | 62 | 1018.2 |
| 20260510073341 | 5 | 268 | 0.0 | 0.0 | 0.00 | 0.00 | 0.00 | 63 | 1018.1 |
| 20260510072837 | 5 | 269 | 0.0 | 0.0 | 0.00 | 0.00 | 0.00 | 63 | 1018.2 |
| 20260510072334 | 5 | 269 | 0.0 | 0.0 | 0.00 | 0.00 | 0.00 | 61 | 1018.2 |
| 20260510071830 | 5 | 269 | 0.0 | 0.0 | 0.00 | 0.00 | 0.00 | 62 | 1018.2 |
| 20260510071326 | 6 | 234 | 0.0 | 0.0 | 0.00 | 0.00 | 0.00 | 61 | 1018.3 |
| 20260510070826 | 6 | 234 | 0.0 | 0.0 | 0.00 | 0.00 | 0.00 | 60 | 1018.3 |
| 20260510070321 | 5 | 234 | 0.0 | 0.0 | 0.00 | 0.00 | 0.00 | 60 | 1018.3 |
| 20260510065816 | 5 | 233 | 0.0 | 0.0 | 0.00 | 0.00 | 0.00 | 60 | 1018.4 |
| 20260510065313 | 5 | 234 | 0.0 | 0.0 | 0.00 | 0.00 | 0.00 | 60 | 1018.3 |
| 20260510064810 | 5 | 229 | 0.0 | 0.0 | 0.00 | 0.00 | 0.00 | 59 | 1018.1 |
| 20260510064308 | 6 | 229 | 0.0 | 0.0 | 0.00 | 0.00 | 0.00 | 58 | 1018.2 |
| 20260510063803 | 6 | 236 | 0.0 | 0.0 | 0.00 | 0.00 | 0.00 | 57 | 1018.2 |
| 20260510063300 | 6 | 196 | 0.0 | 1.6 | 0.00 | 0.00 | 0.00 | 56 | 1018.2 |
| 20260510062756 | 7 | 209 | 0.0 | 3.2 | 0.00 | 0.00 | 0.00 | 56 | 1018.0 |
| 20260510062252 | 7 | 237 | 0.0 | 0.0 | 0.00 | 0.00 | 0.00 | 56 | 1018.2 |
| 20260510061748 | 6 | 242 | 0.0 | 1.6 | 0.00 | 0.00 | 0.00 | 56 | 1018.2 |
| 20260510061245 | 6 | 246 | 0.0 | 0.0 | 0.00 | 0.00 | 0.00 | 56 | 1018.1 |
| 20260510060741 | 6 | 247 | 0.0 | 1.6 | 0.00 | 0.00 | 0.00 | 56 | 1018.1 |
| 20260510060238 | 6 | 268 | 0.0 | 0.0 | 0.00 | 0.00 | 0.00 | 57 | 1018.3 |
| 20260510055735 | 6 | 244 | 0.0 | 0.0 | 0.00 | 0.00 | 0.00 | 57 | 1018.1 |
| 20260510055233 | 7 | 247 | 0.0 | 0.0 | 0.00 | 0.00 | 0.00 | 57 | 1018.1 |
| 20260510054732 | 6 | 244 | 0.0 | 0.0 | 0.00 | 0.00 | 0.00 | 55 | 1018.1 |
| 20260510054229 | 7 | 254 | 0.0 | 0.0 | 0.00 | 0.00 | 0.00 | 54 | 1018.2 |
| 20260510053728 | 7 | 254 | 0.0 | 0.0 | 0.00 | 0.00 | 0.00 | 54 | 1017.9 |
| 20260510053225 | 7 | 229 | 0.0 | 0.0 | 0.00 | 0.00 | 0.00 | 54 | 1017.8 |
| 20260510052720 | 7 | 254 | 0.0 | 0.0 | 0.00 | 0.00 | 0.00 | 52 | 1017.9 |
| 20260510052217 | 8 | 214 | 0.0 | 1.6 | 0.00 | 0.00 | 0.00 | 51 | 1017.9 |
| 20260510051713 | 8 | 208 | 0.0 | 1.6 | 0.00 | 0.00 | 0.00 | 52 | 1017.9 |
| 20260510051209 | 8 | 230 | 0.0 | 0.0 | 0.00 | 0.00 | 0.00 | 51 | 1017.7 |
| 20260510050707 | 8 | 248 | 0.0 | 0.0 | 0.00 | 0.00 | 0.00 | 49 | 1017.7 |
| 20260510050204 | 8 | 235 | 0.0 | 1.6 | 0.00 | 0.00 | 0.00 | 49 | 1017.7 |
| 20260510045701 | 9 | 235 | 0.0 | 1.6 | 0.00 | 0.00 | 0.00 | 49 | 1017.8 |
| 20260510045157 | 9 | 243 | 0.0 | 1.6 | 0.00 | 0.00 | 0.00 | 48 | 1017.7 |
| 20260510044653 | 9 | 234 | 1.6 | 1.6 | 0.00 | 0.00 | 0.00 | 47 | 1017.7 |
| 20260510044151 | 9 | 162 | 3.2 | 3.2 | 0.00 | 0.00 | 0.00 | 47 | 1017.7 |
| 20260510043646 | 10 | 240 | 3.2 | 9.7 | 0.00 | 0.00 | 0.00 | 46 | 1017.5 |
| 20260510043143 | 10 | 171 | 0.0 | 1.6 | 0.00 | 0.00 | 0.00 | 46 | 1017.7 |
| 20260510042641 | 10 | 267 | 1.6 | 3.2 | 0.00 | 0.00 | 0.00 | 46 | 1017.8 |
| 20260510042137 | 10 | 257 | 1.6 | 3.2 | 0.00 | 0.00 | 0.00 | 45 | 1017.8 |
| 20260510041634 | 10 | 244 | 1.6 | 4.8 | 0.00 | 0.00 | 0.00 | 45 | 1017.6 |
| 20260510041131 | 10 | 263 | 1.6 | 8.0 | 0.00 | 0.00 | 0.00 | 45 | 1017.6 |
| 20260510040628 | 10 | 249 | 1.6 | 3.2 | 0.00 | 0.00 | 0.00 | 45 | 1017.5 |
| 20260510040125 | 10 | 267 | 4.8 | 11.3 | 0.00 | 0.00 | 0.00 | 45 | 1017.3 |
| 20260510035620 | 10 | 240 | 0.0 | 3.2 | 0.00 | 0.00 | 0.00 | 46 | 1017.3 |
| 20260510035115 | 10 | 213 | 3.2 | 8.0 | 0.00 | 0.00 | 0.00 | 44 | 1017.4 |
| 20260510034613 | 10 | 241 | 1.6 | 3.2 | 0.00 | 0.00 | 0.00 | 45 | 1017.1 |
| 20260510034110 | 10 | 211 | 1.6 | 3.2 | 0.00 | 0.00 | 0.00 | 44 | 1017.1 |
| 20260510033606 | 10 | 233 | 1.6 | 4.8 | 0.00 | 0.00 | 0.00 | 44 | 1017.1 |
| 20260510033104 | 10 | 252 | 1.6 | 3.2 | 0.00 | 0.00 | 0.00 | 45 | 1017.1 |
| 20260510032600 | 10 | 221 | 0.0 | 1.6 | 0.00 | 0.00 | 0.00 | 45 | 1017.0 |
| 20260510032055 | 10 | 306 | 3.2 | 4.8 | 0.00 | 0.00 | 0.00 | 44 | 1016.8 |
| 20260510031550 | 10 | 292 | 0.0 | 3.2 | 0.00 | 0.00 | 0.00 | 44 | 1016.7 |
| 20260510031047 | 10 | 222 | 1.6 | 1.6 | 0.00 | 0.00 | 0.00 | 43 | 1016.9 |
| 20260510030542 | 11 | 222 | 0.0 | 1.6 | 0.00 | 0.00 | 0.00 | 43 | 1016.6 |
| 20260510030040 | 11 | 230 | 3.2 | 3.2 | 0.00 | 0.00 | 0.00 | 42 | 1016.5 |
| 20260510025536 | 11 | 235 | 1.6 | 3.2 | 0.00 | 0.00 | 0.00 | 43 | 1016.6 |
| 20260510025034 | 11 | 244 | 1.6 | 3.2 | 0.00 | 0.00 | 0.00 | 42 | 1016.3 |
| 20260510024531 | 11 | 103 | 1.6 | 8.0 | 0.00 | 0.00 | 0.00 | 42 | 1016.1 |
| 20260510024027 | 11 | 258 | 1.6 | 3.2 | 0.00 | 0.00 | 0.00 | 41 | 1016.5 |
| 20260510023523 | 11 | 220 | 0.0 | 4.8 | 0.00 | 0.00 | 0.00 | 41 | 1016.1 |
| 20260510023021 | 11 | 272 | 1.6 | 3.2 | 0.00 | 0.00 | 0.00 | 40 | 1016.1 |
| 20260510022520 | 11 | 245 | 0.0 | 1.6 | 0.00 | 0.00 | 0.00 | 40 | 1015.8 |
| 20260510022014 | 11 | 247 | 4.8 | 9.7 | 0.00 | 0.00 | 0.00 | 39 | 1015.7 |
| 20260510021511 | 11 | 222 | 1.6 | 9.7 | 0.00 | 0.00 | 0.00 | 41 | 1015.6 |
| 20260510021008 | 11 | 259 | 1.6 | 3.2 | 0.00 | 0.00 | 0.00 | 40 | 1015.6 |
| 20260510020503 | 11 | 209 | 1.6 | 3.2 | 0.00 | 0.00 | 0.00 | 40 | 1015.5 |
| 20260510015958 | 12 | 225 | 3.2 | 4.8 | 0.00 | 0.00 | 0.00 | 39 | 1015.1 |
| 20260510015454 | 12 | 140 | 3.2 | 8.0 | 0.00 | 0.00 | 0.00 | 38 | 1015.0 |
| 20260510014950 | 12 | 222 | 1.6 | 8.0 | 0.00 | 0.00 | 0.00 | 38 | 1014.9 |
| 20260510014448 | 12 | 225 | 3.2 | 4.8 | 0.00 | 0.00 | 0.00 | 38 | 1014.8 |
| 20260510013944 | 12 | 222 | 1.6 | 3.2 | 0.00 | 0.00 | 0.00 | 39 | 1014.9 |
| 20260510013438 | 12 | 246 | 1.6 | 9.7 | 0.00 | 0.00 | 0.00 | 38 | 1014.7 |
| 20260510012935 | 12 | 232 | 6.4 | 8.0 | 0.00 | 0.00 | 0.00 | 38 | 1014.5 |
| 20260510012429 | 12 | 196 | 4.8 | 8.0 | 0.00 | 0.00 | 0.00 | 38 | 1014.5 |
| 20260510011925 | 12 | 264 | 1.6 | 3.2 | 0.00 | 0.00 | 0.00 | 38 | 1014.5 |
| 20260510011420 | 12 | 227 | 8.0 | 11.3 | 0.00 | 0.00 | 0.00 | 36 | 1014.5 |
| 20260510010916 | 12 | 258 | 3.2 | 9.7 | 0.00 | 0.00 | 0.00 | 36 | 1014.4 |
| 20260510010414 | 12 | 252 | 4.8 | 4.8 | 0.00 | 0.00 | 0.00 | 36 | 1014.2 |
| 20260510005910 | 13 | 199 | 4.8 | 8.0 | 0.00 | 0.00 | 0.00 | 36 | 1014.1 |
| 20260510005406 | 13 | 322 | 4.8 | 11.3 | 0.00 | 0.00 | 0.00 | 35 | 1014.0 |
| 20260510004904 | 13 | 245 | 6.4 | 9.7 | 0.00 | 0.00 | 0.00 | 35 | 1014.0 |
| 20260510004401 | 13 | 212 | 1.6 | 8.0 | 0.00 | 0.00 | 0.00 | 35 | 1014.0 |
| 20260510003859 | 14 | 277 | 4.8 | 9.7 | 0.00 | 0.00 | 0.00 | 34 | 1014.1 |
| 20260510003356 | 14 | 148 | 3.2 | 8.0 | 0.00 | 0.00 | 0.00 | 34 | 1014.0 |
| 20260510002854 | 13 | 242 | 4.8 | 8.0 | 0.00 | 0.00 | 0.00 | 34 | 1014.0 |
| 20260510002352 | 14 | 250 | 1.6 | 8.0 | 0.00 | 0.00 | 0.00 | 34 | 1013.6 |
| 20260510001848 | 14 | 201 | 14.5 | 22.5 | 0.00 | 0.00 | 0.00 | 33 | 1013.6 |
| 20260510001346 | 14 | 208 | 8.0 | 11.3 | 0.00 | 0.00 | 0.00 | 33 | 1013.8 |
| 20260510000843 | 14 | 130 | 3.2 | 8.0 | 0.00 | 0.00 | 0.00 | 34 | 1013.7 |
| 20260510000341 | 13 | 146 | 3.2 | 16.1 | 0.00 | 0.00 | 0.00 | 35 | 1013.7 |
| 20260509235836 | 14 | 244 | 4.8 | 12.9 | 0.00 | 0.00 | 0.00 | 34 | 1013.7 |
| 20260509235333 | 14 | 237 | 4.8 | 8.0 | 0.00 | 0.00 | 0.00 | 34 | 1013.7 |
| 20260509234829 | 14 | 269 | 6.4 | 11.3 | 0.00 | 0.00 | 0.00 | 34 | 1013.4 |
| 20260509234326 | 14 | 237 | 4.8 | 14.5 | 0.00 | 0.00 | 0.00 | 34 | 1013.4 |
| 20260509233824 | 15 | 207 | 6.4 | 14.5 | 0.00 | 0.00 | 0.00 | 35 | 1013.4 |
| 20260509233321 | 14 | 246 | 6.4 | 12.9 | 0.00 | 0.00 | 0.00 | 34 | 1013.2 |
| 20260509232817 | 14 | 223 | 6.4 | 11.3 | 0.00 | 0.00 | 0.00 | 35 | 1013.3 |
| 20260509232315 | 14 | 219 | 9.7 | 14.5 | 0.00 | 0.00 | 0.00 | 35 | 1013.1 |
| 20260509231811 | 14 | 210 | 9.7 | 14.5 | 0.00 | 0.00 | 0.00 | 35 | 1013.0 |
| 20260509231308 | 14 | 200 | 8.0 | 16.1 | 0.00 | 0.00 | 0.00 | 35 | 1013.3 |
| 20260509230806 | 14 | 254 | 4.8 | 9.7 | 0.00 | 0.00 | 0.00 | 35 | 1013.1 |
| 20260509230302 | 14 | 184 | 4.8 | 12.9 | 0.00 | 0.00 | 0.00 | 34 | 1013.0 |
| 20260509225757 | 14 | 250 | 3.2 | 4.8 | 0.00 | 0.00 | 0.00 | 35 | 1012.8 |
| 20260509225254 | 14 | 224 | 8.0 | 12.9 | 0.00 | 0.00 | 0.00 | 33 | 1012.9 |
| 20260509224750 | 15 | 284 | 8.0 | 12.9 | 0.00 | 0.00 | 0.00 | 33 | 1012.9 |
| 20260509224247 | 15 | 197 | 3.2 | 12.9 | 0.00 | 0.00 | 0.00 | 33 | 1012.8 |
| 20260509223744 | 15 | 232 | 9.7 | 16.1 | 0.00 | 0.00 | 0.00 | 32 | 1012.8 |
| 20260509223241 | 14 | 265 | 8.0 | 16.1 | 0.00 | 0.00 | 0.00 | 31 | 1012.9 |
| 20260509222737 | 15 | 231 | 9.7 | 16.1 | 0.00 | 0.00 | 0.00 | 31 | 1012.9 |
| 20260509222233 | 15 | 231 | 4.8 | 17.7 | 0.00 | 0.00 | 0.00 | 32 | 1012.6 |
| 20260509221728 | 15 | 231 | 4.8 | 8.0 | 0.00 | 0.00 | 0.00 | 33 | 1012.6 |
| 20260509221225 | 15 | 231 | 8.0 | 9.7 | 0.00 | 0.00 | 0.00 | 33 | 1012.7 |
| 20260509220721 | 15 | 240 | 3.2 | 20.9 | 0.00 | 0.00 | 0.00 | 32 | 1012.6 |
| 20260509220217 | 15 | 289 | 11.3 | 16.1 | 0.00 | 0.00 | 0.00 | 31 | 1012.6 |
| 20260509215713 | 15 | 251 | 11.3 | 16.1 | 0.00 | 0.00 | 0.00 | 31 | 1012.6 |
| 20260509215210 | 15 | 65 | 3.2 | 12.9 | 0.00 | 0.00 | 0.00 | 33 | 1012.5 |
| 20260509214707 | 15 | 269 | 8.0 | 14.5 | 0.00 | 0.00 | 0.00 | 33 | 1012.6 |
| 20260509214204 | 15 | 284 | 6.4 | 9.7 | 0.00 | 0.00 | 0.00 | 34 | 1012.5 |
| 20260509213701 | 15 | 31 | 3.2 | 12.9 | 0.00 | 0.00 | 0.00 | 34 | 1012.2 |
| 20260509213156 | 15 | 303 | 4.8 | 9.7 | 0.00 | 0.00 | 0.00 | 33 | 1012.2 |
| 20260509212654 | 15 | 168 | 4.8 | 12.9 | 0.00 | 0.00 | 0.00 | 32 | 1012.5 |
| 20260509212151 | 15 | 222 | 6.4 | 12.9 | 0.00 | 0.00 | 0.00 | 32 | 1012.3 |
| 20260509211647 | 15 | 260 | 3.2 | 8.0 | 0.00 | 0.00 | 0.00 | 33 | 1012.1 |
| 20260509211144 | 15 | 232 | 6.4 | 9.7 | 0.00 | 0.00 | 0.00 | 33 | 1012.2 |
| 20260509210641 | 15 | 277 | 12.9 | 14.5 | 0.00 | 0.00 | 0.00 | 33 | 1012.0 |
| 20260509210137 | 15 | 224 | 6.4 | 14.5 | 0.00 | 0.00 | 0.00 | 33 | 1012.0 |
| 20260509205633 | 15 | 260 | 9.7 | 14.5 | 0.00 | 0.00 | 0.00 | 32 | 1012.1 |
| 20260509205127 | 15 | 325 | 4.8 | 14.5 | 0.00 | 0.00 | 0.00 | 34 | 1012.0 |
| 20260509204623 | 15 | 264 | 6.4 | 14.5 | 0.00 | 0.00 | 0.00 | 34 | 1012.0 |
| 20260509204120 | 15 | 230 | 6.4 | 17.7 | 0.00 | 0.00 | 0.00 | 33 | 1011.8 |
| 20260509203616 | 15 | 314 | 4.8 | 11.3 | 0.00 | 0.00 | 0.00 | 33 | 1012.0 |
| 20260509203115 | 15 | 128 | 3.2 | 14.5 | 0.00 | 0.00 | 0.00 | 38 | 1011.7 |
| 20260509202609 | 15 | 317 | 8.0 | 16.1 | 0.00 | 0.00 | 0.00 | 34 | 1011.8 |
| 20260509202104 | 15 | 182 | 1.6 | 16.1 | 0.00 | 0.00 | 0.00 | 34 | 1012.0 |
| 20260509201559 | 15 | 277 | 12.9 | 22.5 | 0.00 | 0.00 | 0.00 | 33 | 1011.7 |
| 20260509201057 | 15 | 209 | 6.4 | 16.1 | 0.00 | 0.00 | 0.00 | 34 | 1011.7 |
| 20260509200557 | 15 | 193 | 1.6 | 11.3 | 0.00 | 0.00 | 0.00 | 35 | 1011.7 |
| 20260509200053 | 15 | 150 | 9.7 | 27.4 | 0.00 | 0.00 | 0.00 | 34 | 1011.7 |
| 20260509195549 | 15 | 236 | 14.5 | 24.1 | 0.00 | 0.00 | 0.00 | 32 | 1011.6 |
| 20260509195044 | 14 | 230 | 4.8 | 14.5 | 0.00 | 0.00 | 0.00 | 34 | 1011.5 |
| 20260509194538 | 15 | 248 | 9.7 | 20.9 | 0.00 | 0.00 | 0.00 | 33 | 1011.6 |
| 20260509194036 | 15 | 213 | 11.3 | 16.1 | 0.00 | 0.00 | 0.00 | 34 | 1011.7 |
| 20260509193537 | 15 | 279 | 8.0 | 16.1 | 0.00 | 0.00 | 0.00 | 35 | 1011.6 |
| 20260509193033 | 15 | 232 | 0.0 | 4.8 | 0.00 | 0.00 | 0.00 | 36 | 1011.6 |
| 20260509192530 | 15 | 224 | 12.9 | 20.9 | 0.00 | 0.00 | 0.00 | 33 | 1011.4 |
| 20260509192025 | 15 | 289 | 4.8 | 9.7 | 0.00 | 0.00 | 0.00 | 35 | 1011.5 |
| 20260509191520 | 14 | 13 | 8.0 | 16.1 | 0.00 | 0.00 | 0.00 | 36 | 1011.2 |
| 20260509191016 | 14 | 207 | 17.7 | 24.1 | 0.00 | 0.00 | 0.00 | 36 | 1011.2 |
| 20260509190513 | 15 | 106 | 1.6 | 11.3 | 0.00 | 0.00 | 0.00 | 38 | 1011.1 |
| 20260509190011 | 13 | 155 | 6.4 | 11.3 | 0.00 | 0.00 | 0.00 | 38 | 1011.2 |
| 20260509185508 | 14 | 247 | 8.0 | 16.1 | 0.00 | 0.00 | 0.00 | 39 | 1011.0 |
| 20260509185004 | 13 | 199 | 8.0 | 11.3 | 0.00 | 0.00 | 0.00 | 38 | 1011.2 |
| 20260509184503 | 13 | 224 | 8.0 | 12.9 | 0.00 | 0.00 | 0.00 | 38 | 1011.3 |
| 20260509183958 | 14 | 239 | 9.7 | 14.5 | 0.00 | 0.00 | 0.00 | 38 | 1011.1 |
| 20260509183453 | 13 | 164 | 3.2 | 16.1 | 0.00 | 0.00 | 0.00 | 40 | 1011.1 |
| 20260509182949 | 13 | 246 | 8.0 | 20.9 | 0.00 | 0.00 | 0.00 | 41 | 1010.6 |
| 20260509182446 | 14 | 213 | 19.3 | 25.7 | 0.00 | 0.00 | 0.00 | 40 | 1010.8 |
| 20260509181944 | 13 | 241 | 8.0 | 29.0 | 0.00 | 0.00 | 0.00 | 38 | 1011.0 |
| 20260509181441 | 13 | 272 | 11.3 | 16.1 | 0.00 | 0.00 | 0.00 | 43 | 1010.8 |
| 20260509180939 | 13 | 256 | 4.8 | 14.5 | 0.00 | 0.00 | 0.00 | 43 | 1010.7 |
| 20260509180434 | 13 | 220 | 9.7 | 16.1 | 0.00 | 0.00 | 0.00 | 41 | 1010.7 |
| 20260509175931 | 13 | 271 | 11.3 | 12.9 | 0.00 | 0.00 | 0.00 | 41 | 1010.7 |
| 20260509175427 | 14 | 243 | 3.2 | 11.3 | 0.00 | 0.00 | 0.00 | 42 | 1010.7 |
| 20260509174924 | 13 | 246 | 8.0 | 16.1 | 0.00 | 0.00 | 0.00 | 43 | 1010.7 |
| 20260509174420 | 13 | 244 | 8.0 | 14.5 | 0.00 | 0.00 | 0.00 | 46 | 1010.8 |
| 20260509173916 | 13 | 251 | 14.5 | 22.5 | 0.00 | 0.00 | 0.00 | 45 | 1010.5 |
| 20260509173415 | 13 | 186 | 4.8 | 11.3 | 0.00 | 0.00 | 0.00 | 46 | 1010.7 |
| 20260509172912 | 13 | 50 | 1.6 | 11.3 | 0.00 | 0.00 | 0.00 | 49 | 1010.5 |
| 20260509172409 | 13 | 246 | 8.0 | 16.1 | 0.00 | 0.00 | 0.00 | 46 | 1010.7 |
| 20260509171905 | 13 | 264 | 9.7 | 14.5 | 0.00 | 0.00 | 0.00 | 47 | 1010.5 |
| 20260509171401 | 12 | 219 | 6.4 | 14.5 | 0.00 | 0.00 | 0.00 | 48 | 1010.4 |
| 20260509170857 | 12 | 139 | 4.8 | 11.3 | 0.00 | 0.00 | 0.00 | 48 | 1010.5 |
| 20260509170353 | 12 | 138 | 11.3 | 25.7 | 0.00 | 0.00 | 0.00 | 47 | 1010.4 |
| 20260509165848 | 12 | 270 | 4.8 | 12.9 | 0.00 | 0.00 | 0.00 | 48 | 1010.3 |
| 20260509165343 | 13 | 205 | 6.4 | 24.1 | 0.00 | 0.00 | 0.00 | 46 | 1010.3 |
| 20260509164839 | 13 | 238 | 3.2 | 17.7 | 0.00 | 0.00 | 0.00 | 46 | 1010.1 |
| 20260509164335 | 13 | 288 | 6.4 | 14.5 | 0.00 | 0.00 | 0.00 | 46 | 1010.3 |
| 20260509163831 | 13 | 309 | 12.9 | 14.5 | 0.00 | 0.00 | 0.00 | 47 | 1010.2 |
| 20260509163328 | 13 | 189 | 11.3 | 17.7 | 0.00 | 0.00 | 0.00 | 47 | 1010.1 |
| 20260509162827 | 13 | 252 | 9.7 | 20.9 | 0.00 | 0.00 | 0.00 | 46 | 1010.0 |
| 20260509162320 | 13 | 212 | 1.6 | 11.3 | 0.00 | 0.00 | 0.00 | 46 | 1010.0 |
| 20260509161817 | 13 | 262 | 11.3 | 25.7 | 0.00 | 0.00 | 0.00 | 45 | 1009.8 |
| 20260509161313 | 13 | 252 | 6.4 | 17.7 | 0.00 | 0.00 | 0.00 | 46 | 1010.0 |
| 20260509160809 | 12 | 299 | 11.3 | 16.1 | 0.00 | 0.00 | 0.00 | 45 | 1009.6 |
| 20260509160305 | 12 | 292 | 9.7 | 12.9 | 0.00 | 0.00 | 0.00 | 45 | 1009.9 |
| 20260509155800 | 12 | 229 | 9.7 | 27.4 | 0.00 | 0.00 | 0.00 | 45 | 1009.8 |
| 20260509155257 | 13 | 232 | 11.3 | 17.7 | 0.00 | 0.00 | 0.00 | 46 | 1009.5 |
| 20260509154753 | 13 | 222 | 3.2 | 22.5 | 0.00 | 0.00 | 0.00 | 48 | 1009.8 |
| 20260509154250 | 12 | 196 | 3.2 | 11.3 | 0.00 | 0.00 | 0.00 | 51 | 1009.5 |
| 20260509153747 | 13 | 322 | 6.4 | 17.7 | 0.00 | 0.00 | 0.00 | 50 | 1009.6 |
| 20260509153243 | 13 | 183 | 9.7 | 16.1 | 0.00 | 0.00 | 0.00 | 51 | 1009.3 |
| 20260509152740 | 12 | 315 | 4.8 | 11.3 | 0.00 | 0.00 | 0.00 | 52 | 1009.4 |
| 20260509152236 | 12 | 231 | 4.8 | 14.5 | 0.00 | 0.00 | 0.00 | 53 | 1009.2 |
| 20260509151733 | 12 | 303 | 9.7 | 14.5 | 0.00 | 0.00 | 0.00 | 54 | 1009.1 |
| 20260509151230 | 12 | 281 | 3.2 | 9.7 | 0.00 | 0.00 | 0.00 | 54 | 1009.3 |
| 20260509150728 | 12 | 353 | 3.2 | 8.0 | 0.00 | 0.00 | 0.00 | 57 | 1009.2 |
| 20260509150226 | 12 | 258 | 6.4 | 11.3 | 0.00 | 0.00 | 0.00 | 57 | 1009.1 |
| 20260509145723 | 11 | 17 | 4.8 | 14.5 | 0.00 | 0.00 | 0.00 | 57 | 1009.0 |
| 20260509145217 | 11 | 304 | 4.8 | 12.9 | 0.00 | 0.00 | 0.00 | 59 | 1008.8 |
| 20260509144714 | 11 | 218 | 12.9 | 20.9 | 0.00 | 0.00 | 0.00 | 59 | 1009.0 |
| 20260509144211 | 11 | 202 | 6.4 | 11.3 | 0.00 | 0.00 | 0.00 | 63 | 1009.1 |
| 20260509143708 | 11 | 173 | 6.4 | 14.5 | 0.00 | 0.00 | 0.00 | 61 | 1008.8 |
| 20260509143205 | 12 | 351 | 4.8 | 20.9 | 0.00 | 0.00 | 0.00 | 62 | 1009.0 |
| 20260509142701 | 12 | 215 | 4.8 | 12.9 | 0.00 | 0.00 | 0.00 | 61 | 1008.8 |
| 20260509142158 | 12 | 240 | 1.6 | 12.9 | 0.00 | 0.00 | 0.00 | 63 | 1008.6 |
| 20260509141653 | 11 | 51 | 1.6 | 3.2 | 0.00 | 0.00 | 0.00 | 65 | 1008.4 |
| 20260509141150 | 11 | 221 | 4.8 | 20.9 | 0.00 | 0.00 | 0.00 | 65 | 1008.4 |
| 20260509140647 | 11 | 259 | 4.8 | 9.7 | 0.00 | 0.00 | 0.00 | 66 | 1008.4 |
| 20260509140145 | 10 | 221 | 4.8 | 9.7 | 0.00 | 0.00 | 0.00 | 70 | 1008.3 |
| 20260509135642 | 11 | 279 | 3.2 | 9.7 | 0.00 | 0.00 | 0.00 | 70 | 1008.2 |
| 20260509135140 | 11 | 269 | 3.2 | 14.5 | 0.00 | 0.00 | 0.00 | 71 | 1008.0 |
| 20260509134636 | 10 | 172 | 6.4 | 12.9 | 0.00 | 0.00 | 0.00 | 73 | 1008.1 |
| 20260509134134 | 10 | 298 | 9.7 | 12.9 | 0.00 | 0.00 | 0.00 | 76 | 1008.2 |
| 20260509133631 | 10 | 225 | 6.4 | 9.7 | 0.00 | 0.00 | 0.00 | 77 | 1008.1 |
| 20260509133128 | 10 | 294 | 1.6 | 14.5 | 0.00 | 0.00 | 0.00 | 79 | 1007.8 |
| 20260509132626 | 10 | 345 | 4.8 | 17.7 | 0.00 | 0.00 | 0.00 | 79 | 1007.9 |
| 20260509132124 | 10 | 247 | 4.8 | 16.1 | 0.00 | 0.00 | 0.00 | 78 | 1007.9 |
| 20260509131620 | 10 | 275 | 3.2 | 12.9 | 0.00 | 0.00 | 0.00 | 77 | 1007.6 |
| 20260509131117 | 10 | 282 | 6.4 | 9.7 | 0.00 | 0.00 | 0.00 | 76 | 1007.6 |
| 20260509130613 | 10 | 272 | 11.3 | 17.7 | 0.00 | 0.00 | 0.00 | 77 | 1007.6 |
| 20260509130110 | 10 | 229 | 11.3 | 12.9 | 0.00 | 0.00 | 0.00 | 78 | 1007.5 |
| 20260509125606 | 10 | 287 | 4.8 | 8.0 | 0.00 | 0.00 | 0.00 | 78 | 1007.3 |
| 20260509125103 | 10 | 247 | 6.4 | 17.7 | 0.00 | 0.00 | 0.00 | 79 | 1007.0 |
| 20260509124559 | 10 | 275 | 9.7 | 14.5 | 0.00 | 0.00 | 0.00 | 80 | 1007.1 |
| 20260509124057 | 10 | 299 | 12.9 | 22.5 | 0.00 | 0.00 | 0.00 | 81 | 1007.2 |
| 20260509123555 | 10 | 236 | 3.2 | 22.5 | 0.00 | 0.00 | 0.00 | 81 | 1007.1 |
| 20260509123051 | 10 | 272 | 11.3 | 17.7 | 0.00 | 0.00 | 0.00 | 82 | 1007.2 |
| 20260509122547 | 10 | 190 | 8.0 | 14.5 | 0.00 | 0.00 | 0.00 | 82 | 1007.0 |
| 20260509122044 | 10 | 222 | 12.9 | 17.7 | 0.00 | 0.00 | 0.00 | 83 | 1006.8 |
| 20260509121540 | 10 | 224 | 6.4 | 12.9 | 0.00 | 0.00 | 0.00 | 83 | 1006.7 |
| 20260509121038 | 10 | 197 | 8.0 | 20.9 | 0.00 | 0.00 | 0.00 | 84 | 1006.7 |
| 20260509120536 | 10 | 238 | 1.6 | 9.7 | 0.00 | 0.00 | 0.00 | 84 | 1006.3 |
| 20260509120034 | 10 | 202 | 6.4 | 11.3 | 0.00 | 0.00 | 0.00 | 83 | 1006.5 |
| 20260509115531 | 10 | 207 | 9.7 | 14.5 | 0.00 | 0.00 | 0.00 | 82 | 1006.5 |
| 20260509115029 | 10 | 214 | 3.2 | 4.8 | 0.00 | 0.00 | 0.00 | 81 | 1006.3 |
| 20260509114527 | 10 | 208 | 6.4 | 9.7 | 0.00 | 0.00 | 0.00 | 80 | 1006.4 |
| 20260509114026 | 10 | 269 | 6.4 | 12.9 | 0.00 | 0.00 | 0.00 | 79 | 1006.2 |
| 20260509113523 | 10 | 171 | 9.7 | 12.9 | 0.00 | 0.00 | 0.00 | 78 | 1006.0 |
| 20260509113021 | 10 | 247 | 1.6 | 8.0 | 0.00 | 0.00 | 0.00 | 75 | 1005.9 |
| 20260509112517 | 10 | 208 | 1.6 | 4.8 | 0.00 | 0.00 | 0.00 | 73 | 1005.8 |
| 20260509112014 | 10 | 236 | 1.6 | 1.6 | 0.00 | 0.00 | 0.00 | 73 | 1005.7 |
| 20260509111511 | 10 | 248 | 1.6 | 1.6 | 0.00 | 0.00 | 0.00 | 72 | 1005.6 |
| 20260509111008 | 10 | 226 | 1.6 | 3.2 | 0.00 | 0.00 | 0.00 | 72 | 1005.4 |
| 20260509110505 | 10 | 241 | 3.2 | 4.8 | 0.00 | 0.00 | 0.00 | 72 | 1005.5 |
| 20260509110002 | 10 | 234 | 1.6 | 3.2 | 0.00 | 0.00 | 0.00 | 72 | 1005.5 |
| 20260509105500 | 10 | 209 | 1.6 | 9.7 | 0.00 | 0.00 | 0.00 | 72 | 1005.3 |
| 20260509104957 | 10 | 148 | 1.6 | 1.6 | 0.00 | 0.00 | 0.00 | 72 | 1005.5 |
| 20260509104454 | 10 | 264 | 1.6 | 4.8 | 0.00 | 0.00 | 0.00 | 70 | 1005.2 |
| 20260509103952 | 10 | 242 | 1.6 | 3.2 | 0.00 | 0.00 | 0.00 | 69 | 1005.4 |
| 20260509103449 | 10 | 244 | 4.8 | 8.0 | 0.00 | 0.00 | 0.00 | 65 | 1005.2 |
| 20260509102947 | 10 | 263 | 3.2 | 3.2 | 0.00 | 0.00 | 0.00 | 63 | 1005.6 |
| 20260509102444 | 11 | 246 | 1.6 | 4.8 | 0.00 | 0.00 | 0.00 | 62 | 1005.7 |
| 20260509101940 | 11 | 255 | 3.2 | 3.2 | 0.00 | 0.00 | 0.00 | 60 | 1005.5 |
| 20260509101436 | 11 | 243 | 0.0 | 1.6 | 0.00 | 0.00 | 0.00 | 59 | 1004.9 |
| 20260509100934 | 11 | 250 | 0.0 | 3.2 | 0.00 | 0.00 | 0.00 | 59 | 1005.0 |
| 20260509100431 | 11 | 28 | 3.2 | 4.8 | 0.00 | 0.00 | 0.00 | 58 | 1004.8 |
| 20260509095928 | 11 | 248 | 3.2 | 4.8 | 0.00 | 0.00 | 0.00 | 57 | 1005.2 |
| 20260509095425 | 11 | 253 | 0.0 | 4.8 | 0.00 | 0.00 | 0.00 | 56 | 1005.2 |
| 20260509094922 | 11 | 220 | 1.6 | 4.8 | 0.00 | 0.00 | 0.00 | 55 | 1005.5 |
| 20260509094418 | 11 | 267 | 1.6 | 3.2 | 0.00 | 0.00 | 0.00 | 55 | 1005.5 |
| 20260509093916 | 11 | 228 | 0.0 | 3.2 | 0.00 | 0.00 | 0.00 | 54 | 1005.4 |